, AK

(GMT )
Deadhorse

Weather History for PASC - October, 2013

Change the Weather History Date:

Sunday, October 27, 2013

  Actual Average Record
Temperature  
Mean Temperature 22 °F -  
Max Temperature 25 °F 12 °F 33 °F (2012)
Min Temperature 18 °F 0 °F -27 °F (1996)
Degree Days  
Heating Degree Days 44    
Moisture  
Dew Point 19 °F    
Average Humidity 88    
Maximum Humidity 92    
Minimum Humidity 81    
Precipitation  
Precipitation 0.00 in - - ()
Sea Level Pressure  
Sea Level Pressure 29.99 in    
Wind  
Wind Speed 14 mph (ESE)    
Max Wind Speed 24 mph    
Max Gust Speed -    
Visibility 10 miles    
Events      
Averages and records for this station are not official NWS values.
T = Trace of Precipitation, MM = Missing Value Source: NWS Daily Summary

Daily Weather History Graph

Daily Weather History Graph

Search for Another Location

Airport or City:

Astronomy

Oct. 27, 2013 Rise Set
Actual Time 10:04 AM AKDT 5:09 PM AKDT
Civil Twilight 8:53 AM AKDT 6:20 PM AKDT
Nautical Twilight 7:40 AM AKDT 7:33 PM AKDT
Astronomical Twilight 6:28 AM AKDT 8:44 PM AKDT
Moon No Moon Rise 4:46 PM AKDT (10/27)
Length of Visible Light 9h 27m
Length of Day
7h 04m
Last Quarter, 42% of the Moon is Illuminated
Oct 27
Last Quarter
Nov 3
New
Nov 9
First Quarter
Nov 17
Full
Nov 25
Last Quarter

Hourly Weather History & Observations

Time (AKDT) Temp. Windchill Dew Point Humidity Pressure Visibility Wind Dir Wind Speed Gust Speed Precip Events Conditions
12:53 AM 21.0 °F 9.3 °F 19.0 °F 92% 30.34 in 10.0 mi East 11.5 mph - N/A   Clear
1:53 AM 19.9 °F 7.9 °F 18.0 °F 92% 30.32 in 10.0 mi East 11.5 mph - N/A   Clear
2:53 AM 19.9 °F 6.7 °F 18.0 °F 92% 30.30 in 10.0 mi East 13.8 mph - N/A   Clear
3:53 AM 19.9 °F 6.7 °F 17.1 °F 89% 30.27 in 10.0 mi East 13.8 mph - N/A   Clear
4:53 AM 18.0 °F 3.6 °F 16.0 °F 92% 30.23 in 10.0 mi East 15.0 mph - N/A   Clear
5:53 AM 18.0 °F 3.6 °F 16.0 °F 92% 30.22 in 10.0 mi ESE 15.0 mph - N/A   Clear
6:53 AM 19.0 °F 4.0 °F 16.0 °F 88% 30.17 in 10.0 mi East 17.3 mph - N/A   Clear
7:53 AM 19.9 °F 4.8 °F 17.1 °F 89% 30.14 in 10.0 mi East 18.4 mph - N/A   Clear
8:53 AM 21.9 °F 6.9 °F 19.0 °F 89% 30.11 in 10.0 mi East 19.6 mph - N/A   Clear
9:53 AM 23.0 °F 8.7 °F 19.9 °F 88% 30.07 in 10.0 mi East 18.4 mph - N/A   Overcast
10:53 AM 25.0 °F 9.9 °F 21.9 °F 88% 30.01 in 10.0 mi East 23.0 mph - N/A   Overcast
11:53 AM 25.0 °F 9.5 °F 21.9 °F 88% 29.98 in 10.0 mi East 24.2 mph - N/A   Overcast
12:53 PM 25.0 °F 12.6 °F 21.9 °F 88% 29.96 in 10.0 mi East 15.0 mph - N/A   Overcast
1:53 PM 25.0 °F 11.3 °F 21.9 °F 88% 29.91 in 10.0 mi East 18.4 mph - N/A   Overcast
2:53 PM 25.0 °F 12.6 °F 21.9 °F 88% 29.88 in 10.0 mi ESE 15.0 mph - N/A   Overcast
3:53 PM 24.1 °F 13.1 °F 21.0 °F 88% 29.83 in 10.0 mi East 11.5 mph - N/A   Partly Cloudy
4:53 PM 25.0 °F 14.8 °F 21.9 °F 88% 29.83 in 10.0 mi East 10.4 mph - N/A   Overcast
5:53 PM 24.1 °F 16.0 °F 21.9 °F 91% 29.82 in 10.0 mi ESE 6.9 mph - N/A   Overcast
6:53 PM 21.0 °F 13.4 °F 19.0 °F 92% 29.79 in 10.0 mi SSE 5.8 mph - N/A   Mostly Cloudy
7:53 PM 21.0 °F 9.9 °F 17.1 °F 85% 29.77 in 10.0 mi SSW 10.4 mph - N/A   Mostly Cloudy
8:53 PM 24.1 °F 11.0 °F 19.0 °F 81% 29.76 in 10.0 mi SW 16.1 mph - N/A   Clear
9:53 PM 21.9 °F 8.7 °F 18.0 °F 85% 29.74 in 10.0 mi SW 15.0 mph - N/A   Scattered Clouds
10:53 PM 23.0 °F 10.6 °F 18.0 °F 81% 29.72 in 10.0 mi SW 13.8 mph - N/A   Scattered Clouds
11:53 PM 21.9 °F 9.2 °F 18.0 °F 85% 29.70 in 10.0 mi SW 13.8 mph - N/A   Scattered Clouds